Time,TemperatureF,DewpointF,PressureIn,WindDirection,WindDirectionDegrees,WindSpeedMPH,WindSpeedGustMPH,Humidity,HourlyPrecipIn,Conditions,Clouds,dailyrainin,SoftwareType,DateUTC
2013-01-06 15:12:00,49.0,24.0,28.67,South,191,3.0,5.0,37,0.00,,,0.00,,2013-01-06 21:12:00,
2013-01-06 15:22:00,49.0,24.0,28.67,SSE,156,3.0,5.0,37,0.00,,,0.00,,2013-01-06 21:22:00,
2013-01-06 15:33:00,49.0,24.0,28.67,SSW,199,3.0,3.0,37,0.00,,,0.00,,2013-01-06 21:33:00,
2013-01-06 15:42:00,49.0,24.0,28.67,SSW,199,3.0,3.0,37,0.00,,,0.00,,2013-01-06 21:42:00,
2013-01-06 15:53:00,49.0,24.0,28.67,WSW,241,3.0,3.0,37,0.00,,,0.00,,2013-01-06 21:53:00,
2013-01-06 16:02:00,49.0,24.0,28.67,SSE,152,2.0,3.0,37,0.00,,,0.00,,2013-01-06 22:02:00,
2013-01-06 16:12:00,49.0,24.0,28.67,SSE,152,2.0,3.0,37,0.00,,,0.00,,2013-01-06 22:12:00,
2013-01-06 16:22:00,49.0,24.0,28.67,SW,217,3.0,3.0,37,0.00,,,0.00,,2013-01-06 22:22:00,
2013-01-06 16:33:00,47.0,22.0,28.67,SE,137,0.0,3.0,37,0.00,,,0.00,,2013-01-06 22:33:00,
2013-01-06 16:43:00,47.0,22.0,28.67,SE,137,0.0,3.0,37,0.00,,,0.00,,2013-01-06 22:43:00,
2013-01-06 16:52:00,46.0,22.0,28.67,South,176,0.0,0.0,38,0.00,,,0.00,,2013-01-06 22:52:00,
2013-01-06 17:02:00,45.0,22.0,28.64,South,186,0.0,0.0,39,0.00,,,0.00,,2013-01-06 23:02:00,
2013-01-06 17:12:00,45.0,22.0,28.64,South,186,0.0,0.0,39,0.00,,,0.00,,2013-01-06 23:12:00,
2013-01-06 17:22:00,44.0,21.0,28.64,South,186,0.0,0.0,39,0.00,,,0.00,,2013-01-06 23:22:00,
2013-01-06 17:33:00,43.0,20.0,28.64,South,186,0.0,0.0,40,0.00,,,0.00,,2013-01-06 23:33:00,
2013-01-06 17:42:00,43.0,20.0,28.64,South,186,0.0,0.0,40,0.00,,,0.00,,2013-01-06 23:42:00,
2013-01-06 17:53:00,40.0,19.0,28.64,South,186,0.0,0.0,42,0.00,,,0.00,,2013-01-06 23:53:00,
2013-01-06 18:02:00,39.0,18.0,28.64,South,186,0.0,0.0,43,0.00,,,0.00,,2013-01-07 00:02:00,
2013-01-06 18:12:00,39.0,18.0,28.64,South,186,0.0,0.0,43,0.00,,,0.00,,2013-01-07 00:12:00,
2013-01-06 18:23:00,36.0,17.0,28.64,South,182,0.0,0.0,46,0.00,,,0.00,,2013-01-07 00:23:00,
2013-01-06 18:32:00,36.0,18.0,28.64,South,182,0.0,0.0,48,0.00,,,0.00,,2013-01-07 00:32:00,
2013-01-06 18:42:00,36.0,18.0,28.64,South,182,0.0,0.0,48,0.00,,,0.00,,2013-01-07 00:42:00,
2013-01-06 18:53:00,35.0,18.0,28.64,South,182,0.0,0.0,50,0.00,,,0.00,,2013-01-07 00:53:00,
2013-01-06 19:02:00,34.0,18.0,28.64,South,182,0.0,0.0,51,0.00,,,0.00,,2013-01-07 01:02:00,
2013-01-06 19:12:00,34.0,18.0,28.64,South,182,0.0,0.0,51,0.00,,,0.00,,2013-01-07 01:12:00,
2013-01-06 19:22:00,34.0,19.0,28.64,South,182,0.0,0.0,53,0.00,,,0.00,,2013-01-07 01:22:00,
2013-01-06 19:32:00,33.0,18.0,28.64,South,182,0.0,0.0,54,0.00,,,0.00,,2013-01-07 01:32:00,
2013-01-06 19:42:00,33.0,18.0,28.64,South,182,0.0,0.0,54,0.00,,,0.00,,2013-01-07 01:42:00,
2013-01-06 19:53:00,33.0,19.0,28.64,South,182,0.0,0.0,55,0.00,,,0.00,,2013-01-07 01:53:00,
2013-01-06 20:02:00,33.0,19.0,28.64,South,182,0.0,0.0,55,0.00,,,0.00,,2013-01-07 02:02:00,
2013-01-06 20:12:00,33.0,19.0,28.64,South,182,0.0,0.0,55,0.00,,,0.00,,2013-01-07 02:12:00,
2013-01-06 20:22:00,33.0,19.0,28.64,South,182,0.0,0.0,55,0.00,,,0.00,,2013-01-07 02:22:00,
2013-01-06 20:32:00,33.0,19.0,28.64,South,182,0.0,0.0,55,0.00,,,0.00,,2013-01-07 02:32:00,
2013-01-06 20:53:00,33.0,19.0,28.64,SE,143,2.0,3.0,57,0.00,,,0.00,,2013-01-07 02:53:00,
2013-01-06 21:02:00,32.0,19.0,28.61,SE,146,3.0,3.0,57,0.00,,,0.00,,2013-01-07 03:02:00,
2013-01-06 21:12:00,32.0,19.0,28.61,SE,146,3.0,3.0,57,0.00,,,0.00,,2013-01-07 03:12:00,
2013-01-06 21:22:00,32.0,19.0,28.61,SE,146,3.0,3.0,57,0.00,,,0.00,,2013-01-07 03:22:00,
2013-01-06 21:32:00,32.0,19.0,28.61,SSE,155,4.0,5.0,58,0.00,,,0.00,,2013-01-07 03:32:00,
2013-01-06 21:42:00,32.0,19.0,28.61,SSE,155,4.0,5.0,58,0.00,,,0.00,,2013-01-07 03:42:00,
2013-01-06 21:53:00,32.0,19.0,28.61,SE,140,4.0,4.0,58,0.00,,,0.00,,2013-01-07 03:53:00,
2013-01-06 22:02:00,32.0,19.0,28.61,SSE,152,3.0,5.0,59,0.00,,,0.00,,2013-01-07 04:02:00,
2013-01-06 22:12:00,32.0,19.0,28.61,SSE,152,3.0,5.0,59,0.00,,,0.00,,2013-01-07 04:12:00,
2013-01-06 22:22:00,32.0,19.0,28.61,SE,139,3.0,3.0,59,0.00,,,0.00,,2013-01-07 04:22:00,
2013-01-06 22:32:00,33.0,21.0,28.61,SE,138,3.0,5.0,60,0.00,,,0.00,,2013-01-07 04:32:00,
2013-01-06 22:42:00,33.0,21.0,28.61,SE,138,3.0,5.0,60,0.00,,,0.00,,2013-01-07 04:42:00,
2013-01-06 22:52:00,33.0,21.0,28.58,SE,137,5.0,5.0,60,0.00,,,0.00,,2013-01-07 04:52:00,
2013-01-06 23:02:00,34.0,21.0,28.58,SSE,152,5.0,7.0,59,0.00,,,0.00,,2013-01-07 05:02:00,
2013-01-06 23:12:00,34.0,21.0,28.58,SSE,152,5.0,7.0,59,0.00,,,0.00,,2013-01-07 05:12:00,
2013-01-06 23:22:00,35.0,21.0,28.58,SSE,153,5.0,7.0,56,0.00,,,0.00,,2013-01-07 05:22:00,
2013-01-06 23:33:00,35.0,20.0,28.58,SE,146,5.0,5.0,55,0.00,,,0.00,,2013-01-07 05:33:00,
2013-01-06 23:42:00,35.0,20.0,28.58,SE,146,5.0,5.0,55,0.00,,,0.00,,2013-01-07 05:42:00,
2013-01-06 23:53:00,34.0,20.0,28.58,SSE,149,5.0,9.0,55,0.00,,,0.00,,2013-01-07 05:53:00,